STARLINK-4268, 53183

Orbit data source: Space-Track

STARLINK-4268, 53183 is a payload satellite owned by SpaceX/Seattle (US) in LEO that was launched on Sun, 17 Jul 2022 UTC via an FALCON 9 launch vehicle from the Air Force Eastern Test Range (AFETR). Payload-class satellites include a variety of spacecraft equipped with specific instruments for various scientific and technological missions. These include communications satellites like Starlink; space stations such as the ISS; scientific satellites like the Hubble; Earth observation satellites from companies like Planet Labs, Umbra, and HawkEye 360; GPS; miniature CubeSats for education and research; and military/defense satellites.

Loading next visibility...
Identifier
53183, 2022-083BD
Orbit
LEO
Country
Flag of USUS
Related business
Manufacturer
SpaceX/Seattle
Mission
Operational Commercial Communications
Bus & Motor
STARLINK, Unknown motor
Mass
297 kg wet, ~275 kg dry
Launch date (UTC)
2022-07-17 (4 years ago)
Launch vehicle
FALCON 9
Launch site
Air Force Eastern Test Range (AFETR)
Object type
Payload
Rocket body
Debris
Shape & HBR
Box + 1 Pan, 10.1 m
Radar Cross Section
13.562 m², Large (>1 m²)

Expand to show TLE details & history
Last TLE update: 2 days ago

TLE from 2 days ago
0 STARLINK-4268
1 53183U 22083BD  26171.33434389  .00000181  00000-0  29477-4 0  9992
2 53183  53.1607  28.1297 0001257  88.4723 271.6413 15.08837324217331
Epoch: 2026-06-20T08:01Z
TLE epoch observation values (Epoch: 2026-06-20T08:01:27.312Z)
Latitude
0.00004°
Longitude
-0.78452°
Altitude
540.618 km
Speed
7.593 km/s
True Right ascension
01h 52m 31s
True Declination
0° 00' 00"
Sunlit
Object was in daylight at epoch
Visualization orbit readout
Latitude
Unknown
Longitude
Unknown
Altitude
Unknown
Speed
Unknown
Apparent Right ascension
Unknown
Apparent Declination
Unknown
Sunlit
N/A
Visualization observer readout
Local Sidereal Time
21:25:34
Azimuth
Unknown
Elevation
Unknown
Doppler factor
Unknown
Orbital elements
Apogee altitude
540.875 km
Perigee altitude
539.136 km
Semi-major axis
6,918.143 km
Eccentricity
0.00013
Inclination
53.1607°
RAAN
28.1297°
Arg. of periapsis
88.4723°
True anomaly
271.6269°
Mean anomaly
271.6413°
Eccentric anomaly
271.6341°
Mean motion
3.77189 °/min
Orbital period
95.44 mins
BSTAR
0.000029477
Loading maneuver chart data...
Computing Atmospheric mass density...
Loading historical data...
Loading historical data...
Loading historical data...
Loading historical data...
Loading historical data...
Loading historical data...
Loading historical data...

Documentation

Showing up to 5 results
|